EW7001 Weather Reports


Display with metric or nautical units.
time (UTC)temp
F
wind
direction
speed
MPH
gust
MPH
rain 1hr
in
rain 24hr
in
rain mn
in
humidity
%
barometer
mb
20260510151506 55 197 7.0 12.0 0.04 0.41 0.17 69 1018.3
20260510150006 53 204 7.0 12.0 0.04 0.40 0.16 74 1018.5
20260510144510 51 210 8.0 12.0 0.03 0.38 0.14 76 1018.6
20260510143002 50 206 6.0 10.0 0.02 0.37 0.13 79 1018.7
20260510141502 48 216 8.0 12.0 0.02 0.37 0.13 80 1018.6
20260510140100 48 206 6.0 10.0 0.01 0.36 0.12 81 1018.6
20260510140001 48 223 7.0 10.0 0.01 0.36 0.12 81 1018.6
20260510134607 47 208 7.0 12.0 0.00 0.35 0.11 84 1018.6
20260510133056 45 194 6.0 9.0 0.00 0.35 0.11 86 1018.5
20260510131555 44 214 4.0 8.0 0.00 0.35 0.11 88 1018.4
20260510130056 43 203 6.0 8.0 0.00 0.35 0.11 90 1018.3
20260510124551 42 192 6.0 10.0 0.00 0.35 0.11 90 1018.3
20260510123053 41 212 5.0 9.0 0.00 0.35 0.11 90 1018.2
20260510121547 40 189 5.0 7.0 0.00 0.35 0.11 90 1018.0
20260510120045 39 206 5.0 8.0 0.00 0.35 0.11 90 1017.8
20260510114545 39 192 5.0 8.0 0.00 0.36 0.11 90 1017.8
20260510113040 39 211 5.0 8.0 0.00 0.36 0.11 90 1017.7
20260510111537 39 207 5.0 9.0 0.00 0.36 0.11 90 1017.4
20260510110035 38 135 0.0 2.0 0.00 0.36 0.11 89 1017.3
20260510104535 38 63 1.0 2.0 0.00 0.36 0.11 89 1017.2
20260510103030 39 1 0.0 3.0 0.00 0.36 0.11 89 1017.0
20260510101530 40 89 0.0 2.0 0.00 0.36 0.11 89 1017.0
20260510100031 40 241 2.0 5.0 0.00 0.36 0.11 89 1016.9
20260510094527 39 46 1.0 2.0 0.00 0.36 0.11 86 1016.7
20260510093026 41 89 0.0 3.0 0.00 0.36 0.11 88 1016.4
20260510091524 41 303 1.0 3.0 0.00 0.36 0.11 89 1016.4
20260510090021 42 279 1.0 4.0 0.00 0.36 0.11 89 1016.3
20260510084518 41 279 1.0 3.0 0.00 0.36 0.11 89 1016.2
20260510083018 41 245 2.0 4.0 0.00 0.36 0.11 90 1016.3
20260510081514 41 290 1.0 3.0 0.00 0.36 0.11 90 1016.2
20260510080013 41 269 1.0 3.0 0.00 0.36 0.11 90 1016.1
20260510074513 41 241 1.0 3.0 0.00 0.36 0.11 89 1016.2
20260510073011 42 246 1.0 4.0 0.00 0.36 0.11 89 1016.4
20260510071509 42 277 1.0 3.0 0.00 0.36 0.11 90 1016.2
20260510070006 42 296 1.0 3.0 0.00 0.36 0.11 91 1016.1
20260510064520 42 46 0.0 3.0 0.00 0.36 0.11 91 1016.2
20260510063002 42 245 1.0 4.0 0.00 0.36 0.11 91 1016.2
20260510061502 42 283 2.0 4.0 0.00 0.36 0.11 91 1016.2
20260510060100 40 229 1.0 4.0 0.00 0.36 0.11 93 1016.2
20260510054604 35 1 0.0 2.0 0.00 0.36 0.11 91 1016.2
20260510053054 34 135 0.0 2.0 0.00 0.36 0.11 88 1015.9
20260510051553 35 46 0.0 2.0 0.00 0.36 0.11 88 1015.9
20260510050051 35 76 0.0 2.0 0.00 0.36 0.11 87 1015.7
20260510044544 36 46 0.0 2.0 0.00 0.36 0.11 85 1015.5
20260510043036 38 108 0.0 2.0 0.00 0.36 0.11 84 1015.5
20260510041534 41 124 1.0 3.0 0.00 0.36 0.11 83 1015.4
20260510040029 43 1 0.0 2.0 0.00 0.36 0.11 86 1015.3
20260510034527 44 46 0.0 2.0 0.00 0.36 0.11 85 1015.3
20260510033024 44 269 1.0 3.0 0.00 0.36 0.11 84 1015.3
20260510031600 44 269 1.0 3.0 0.00 0.36 0.11 82 1015.0
20260510030050 44 258 1.0 3.0 0.00 0.36 0.11 79 1014.8
20260510024515 46 234 1.0 2.0 0.00 0.36 0.11 76 1014.5
20260510023012 48 314 1.0 3.0 0.00 0.36 0.11 75 1014.2
20260510021507 49 338 1.0 4.0 0.00 0.36 0.11 73 1013.8
20260510020004 50 316 2.0 5.0 0.00 0.36 0.11 72 1013.6
20260510014610 51 293 3.0 8.0 0.00 0.36 0.11 71 1013.3
20260510013133 51 320 5.0 9.0 0.00 0.36 0.11 69 1013.1
20260510011655 52 277 4.0 9.0 0.00 0.36 0.11 71 1012.9
20260510010054 52 331 2.0 6.0 0.00 0.36 0.11 72 1012.8
20260510004551 51 314 3.0 5.0 0.00 0.36 0.11 79 1012.6
20260510003103 49 281 4.0 11.0 0.00 0.36 0.11 80 1012.6
20260510001547 49 288 4.0 12.0 0.00 0.36 0.11 79 1012.5
20260510000050 49 278 5.0 12.0 0.00 0.36 0.11 79 1012.2
20260509234542 49 276 6.0 16.0 0.00 0.36 0.11 76 1012.1
20260509233038 52 291 9.0 17.0 0.00 0.36 0.11 76 1011.8
20260509231502 53 257 8.0 11.0 0.00 0.36 0.11 72 1011.4
20260509230109 54 319 4.0 12.0 0.00 0.36 0.11 65 1011.2
20260509224555 54 343 4.0 10.0 0.01 0.36 0.11 65 1010.9
20260509223104 54 30 2.0 6.0 0.01 0.36 0.11 69 1010.8
20260509221604 53 42 3.0 6.0 0.01 0.36 0.11 74 1010.7
20260509220051 53 4 5.0 12.0 0.01 0.36 0.11 69 1010.9
20260509214558 55 331 3.0 8.0 0.00 0.35 0.10 59 1010.6
20260509213046 55 23 4.0 11.0 0.00 0.35 0.10 58 1010.6
20260509211547 56 312 5.0 11.0 0.00 0.35 0.10 60 1010.6
20260509210046 56 325 4.0 9.0 0.00 0.35 0.10 63 1010.5
20260509204535 54 271 6.0 9.0 0.00 0.35 0.10 64 1010.5
20260509203039 53 317 4.0 7.0 0.00 0.35 0.10 66 1010.5
20260509201534 52 343 3.0 8.0 0.01 0.35 0.10 71 1010.5
20260509200037 51 326 3.0 7.0 0.01 0.35 0.10 73 1010.4
20260509194543 50 319 3.0 8.0 0.01 0.35 0.10 76 1010.5
20260509193024 53 307 6.0 12.0 0.01 0.35 0.10 64 1010.2
20260509191518 54 320 6.0 15.0 0.00 0.34 0.09 63 1010.1
20260509190017 54 326 4.0 12.0 0.00 0.34 0.09 63 1009.9
20260509184510 54 353 4.0 12.0 0.00 0.36 0.09 62 1009.7
20260509183007 53 342 5.0 11.0 0.03 0.36 0.09 72 1009.4
20260509181502 51 314 4.0 8.0 0.06 0.36 0.09 78 1009.4
20260509180054 53 286 2.0 10.0 0.07 0.36 0.09 68 1009.3
20260509174550 55 354 5.0 14.0 0.14 0.36 0.09 53 1008.9
20260509173043 57 344 8.0 14.0 0.15 0.33 0.06 53 1008.6
20260509171541 57 339 6.0 13.0 0.20 0.30 0.03 54 1008.5
20260509170031 57 335 9.0 17.0 0.22 0.28 0.02 51 1008.4
20260509164526 58 331 7.0 16.0 0.17 0.22 0.22 50 1008.0
20260509163036 59 333 7.0 16.0 0.14 0.18 0.18 48 1007.9
20260509161530 59 310 7.0 15.0 0.06 0.10 0.10 48 1007.8
20260509160024 58 304 7.0 16.0 0.04 0.07 0.07 48 1007.8
20260509154520 58 329 6.0 14.0 0.02 0.05 0.05 47 1007.8
20260509153033 59 327 7.0 15.0 0.01 0.04 0.04 46 1007.6